Location: London
(51.5166°N, 0.1046°W)
Time: 11:38:31
(UTC+01:00)

ISS - Visible Passes

Search period start: 29 March 2015 00:00
Search period end: 08 April 2015 01:00
Orbit: 396 x 406 km, 51.6° (Epoch: 28 March)

Date Brightness Start Highest point End Pass type
(mag) Time Alt. Az. Time Alt. Az. Time Alt. Az.
29 Mar -0.3 03:43:08 12° ESE 03:43:08 12° ESE 03:43:23 10° ESE visible
29 Mar -2.5 05:15:44 29° SW 05:16:20 31° SSW 05:19:14 10° SE visible
30 Mar -1.4 04:24:54 21° SE 04:24:54 21° SE 04:26:10 10° SE visible
30 Mar -1.2 05:57:32 10° WSW 05:58:53 12° SW 06:00:09 10° SSW visible
31 Mar -1.4 05:06:54 16° S 05:06:54 16° S 05:08:03 10° S visible
04 Apr -1.4 21:23:20 10° SSW 21:24:33 18° S 21:24:33 18° S visible
05 Apr -1.6 20:30:35 10° S 20:32:41 16° SE 20:34:07 13° ESE visible
05 Apr -1.4 22:05:23 10° WSW 22:06:43 22° SW 22:06:43 22° SW visible
06 Apr -2.9 21:11:59 10° SW 21:15:04 40° SSE 21:15:56 32° ESE visible
06 Apr -0.5 22:48:03 10° W 22:48:32 14° W 22:48:32 14° W visible
07 Apr -2.2 20:18:45 10° SSW 20:21:33 27° SSE 20:24:23 10° E visible
07 Apr -3.4 21:54:24 10° WSW 21:57:30 74° SSW 21:57:30 74° SSW visible
